Istanbul, Turkey

2:17 PM +03 on April 22, 2018 (GMT +0300)
Ataturk

Weather History for LTBA - September, 2014

Change the Weather History Date:

Wednesday, September 10, 2014

  Actual Average Record
Temperature  
Mean Temperature 76 °F -  
Max Temperature 84 °F 71 °F 91 °F (2017)
Min Temperature 68 °F 59 °F 57 °F (2004)
Cooling Degree Days 11    
Growing Degree Days 26 (Base 50)    
Moisture  
Dew Point 60 °F    
Average Humidity 61    
Maximum Humidity 94    
Minimum Humidity 10    
Precipitation  
Precipitation 0.00 in - - ()
Sea Level Pressure  
Sea Level Pressure 29.92 in    
Wind  
Wind Speed 8 mph ()    
Max Wind Speed 15 mph    
Max Gust Speed -    
Visibility 6.1 miles    
Events      
Averages and records for this station are not official NWS values.
T = Trace of Precipitation, MM = Missing Value Source: Averaged Metar Reports

Daily Weather History Graph

Daily Weather History Graph

Search for Another Location

Airport or City:

Astronomy

Sep. 10, 2014 Rise Set
Actual Time 6:40 AM EEST 7:22 PM EEST
Civil Twilight 6:12 AM EEST 7:50 PM EEST
Nautical Twilight 5:39 AM EEST 8:23 PM EEST
Astronomical Twilight 5:05 AM EEST 8:57 PM EEST
Moon 8:07 PM EEST (9/10) 8:05 AM EEST (9/10)
Length of Visible Light 13h 38m
Length of Day
12h 42m
Full, 98% of the Moon is Illuminated
Sep 10
Full
Sep 16
Last Quarter
Sep 24
New
Oct 1
First Quarter
Oct 8
Full

Hourly Weather History & Observations

Time (EEST) Temp. Heat Index Dew Point Humidity Pressure Visibility Wind Dir Wind Speed Gust Speed Precip Events Conditions
12:00 AM 74 °F - 64 °F 62% 29.95 in 6 mi NE 8.1 mph - -  
12:20 AM 73.4 °F - 64.4 °F 73% 29.95 in - NNE 6.9 mph - N/A   Clear
12:50 AM 73.4 °F - 64.4 °F 73% 29.95 in - NNE 5.8 mph - N/A   Clear
1:20 AM 73.4 °F - 64.4 °F 73% 29.95 in - Variable 2.3 mph - N/A   Clear
1:50 AM 71.6 °F - 62.6 °F 73% 29.95 in - North 3.5 mph - N/A   Clear
2:20 AM 71.6 °F - 62.6 °F 73% 29.95 in - North 5.8 mph - N/A   Clear
2:50 AM 71.6 °F - 64.4 °F 78% 29.95 in - North 6.9 mph - N/A   Clear
3:00 AM 71 °F - 64 °F 73% 29.94 in 6 mi North 6.9 mph - -  
3:20 AM 69.8 °F - 64.4 °F 83% 29.92 in - North 4.6 mph - N/A   Clear
3:50 AM 69.8 °F - 64.4 °F 83% 29.92 in - North 5.8 mph - N/A   Clear
4:20 AM 68.0 °F - 64.4 °F 88% 29.92 in - North 8.1 mph - N/A   Clear
4:50 AM 69.8 °F - 64.4 °F 83% 29.92 in - North 6.9 mph - N/A   Clear
5:20 AM 69.8 °F - 66.2 °F 88% 29.92 in - North 6.9 mph - N/A   Clear
5:50 AM 69.8 °F - 66.2 °F 88% 29.92 in - NNW 9.2 mph - N/A   Clear
6:00 AM 69 °F - 65 °F 84% 29.93 in 6 mi NNW 9.2 mph - -  
6:20 AM 68.0 °F - 66.2 °F 94% 29.92 in - North 10.4 mph - N/A   Clear
6:50 AM 68.0 °F - 64.4 °F 88% 29.92 in - North 6.9 mph - N/A   Clear
7:20 AM 71.6 °F - 66.2 °F 83% 29.92 in - NNE 8.1 mph - N/A   Clear
7:50 AM 71.6 °F - 66.2 °F 83% 29.92 in - NNE 9.2 mph - N/A   Clear
8:20 AM 73.4 °F - 66.2 °F 78% 29.92 in - North 10.4 mph - N/A   Clear
8:50 AM 73.4 °F - 64.4 °F 73% 29.92 in - NNE 11.5 mph - N/A   Clear
9:00 AM 74 °F - 65 °F 65% 29.93 in 6 mi NNE 11.5 mph - -   Clear
9:20 AM 75.2 °F - 64.4 °F 69% 29.92 in - NE 11.5 mph - N/A   Clear
9:50 AM 75.2 °F - 62.6 °F 65% 29.92 in - NE 10.4 mph - N/A   Clear
10:20 AM 77.0 °F - 62.6 °F 61% 29.92 in 6.2 mi NE 10.4 mph - N/A   Scattered Clouds
10:50 AM 78.8 °F - 55.4 °F 44% 29.92 in 6.2 mi ENE 9.2 mph - N/A   Scattered Clouds
11:20 AM 77.0 °F - 64.4 °F 65% 29.92 in 6.2 mi East 6.9 mph - N/A   Scattered Clouds
11:50 AM 77.0 °F - 64.4 °F 65% 29.92 in 6.2 mi ESE 6.9 mph - N/A   Scattered Clouds
12:00 PM 78 °F - 63 °F 51% 29.93 in 6 mi ESE 6.9 mph - -   Scattered Clouds
12:20 PM 78.8 °F - 64.4 °F 61% 29.92 in 6.2 mi SSE 6.9 mph - N/A   Scattered Clouds
12:50 PM 78.8 °F - 64.4 °F 61% 29.92 in 6.2 mi SSE 4.6 mph - N/A   Scattered Clouds
1:20 PM 82.4 °F - 46.4 °F 28% 29.92 in 6.2 mi NNE 11.5 mph - N/A   Scattered Clouds
1:50 PM 82.4 °F - 41.0 °F 23% 29.92 in 6.2 mi NE 11.5 mph - N/A   Partly Cloudy
2:20 PM 84.2 °F - 39.2 °F 20% 29.92 in 6.2 mi NNE 13.8 mph - N/A   Partly Cloudy
2:50 PM 84.2 °F - 41.0 °F 22% 29.89 in 6.2 mi NNE 13.8 mph - N/A   Partly Cloudy
3:00 PM 84 °F - 37 °F 10% 29.91 in 6 mi NNE 13.8 mph - -   Scattered Clouds
3:20 PM 84.2 °F - 44.6 °F 25% 29.89 in 6.2 mi NE 12.7 mph - N/A   Partly Cloudy
3:50 PM 84.2 °F - 50.0 °F 30% 29.89 in 6.2 mi NNE 12.7 mph - N/A   Partly Cloudy
4:20 PM 82.4 °F - 50.0 °F 32% 29.89 in 6.2 mi NNE 15.0 mph - N/A   Partly Cloudy
4:50 PM 82.4 °F - 51.8 °F 35% 29.89 in - NNE 13.8 mph - N/A   Clear
5:20 PM 80.6 °F 80.3 °F 53.6 °F 39% 29.89 in - NNE 13.8 mph - N/A   Clear
5:50 PM 80.6 °F - 51.8 °F 37% 29.89 in - NNE 12.7 mph - N/A   Clear
6:00 PM 80 °F - 51 °F 26% 29.91 in 6 mi NNE 12.7 mph - -  
6:20 PM 78.8 °F - 55.4 °F 44% 29.89 in - North 12.7 mph - N/A   Clear
6:50 PM 78.8 °F - 59.0 °F 51% 29.89 in - NNE 11.5 mph - N/A   Clear
7:20 PM 77.0 °F - 59.0 °F 54% 29.92 in - NNE 10.4 mph - N/A   Clear
7:50 PM 77.0 °F - 60.8 °F 57% 29.92 in - NE 9.2 mph - N/A   Clear
8:20 PM 77.0 °F - 60.8 °F 57% 29.92 in - NE 10.4 mph - N/A   Clear
8:50 PM 75.2 °F - 62.6 °F 65% 29.92 in - NE 10.4 mph - N/A   Clear
9:00 PM 75 °F - 62 °F 56% 29.93 in 6 mi NE 10.4 mph - -  
9:20 PM 75.2 °F - 62.6 °F 65% 29.92 in - NE 9.2 mph - N/A   Clear
9:50 PM 75.2 °F - 62.6 °F 65% 29.92 in - NNE 6.9 mph - N/A   Clear
10:20 PM 75.2 °F - 62.6 °F 65% 29.92 in - NE 8.1 mph - N/A   Clear
10:50 PM 73.4 °F - 62.6 °F 69% 29.92 in - NE 8.1 mph - N/A   Clear
11:20 PM 73.4 °F - 62.6 °F 69% 29.92 in - NE 5.8 mph - N/A   Clear
11:50 PM 73.4 °F - 62.6 °F 69% 29.95 in - North 5.8 mph - N/A   Clear